Погода в Боции

Россия / Республика Бурятия     50°28′10″N   105°38′48″E
темп.,
°C
ветер,
м/с
пор.,
м/с
влажн.,
%
обл.,
%
осадки,
мм/ч
давл.,
гПа
погр.,
м
14 мая, пт
пт1423:00+3сз34430 0.0 101862
02:00+1зсз33500 0.0 102043
05:000з33520 0.0 102030
08:00+4зсз36394 0.0 1020520
11:00+7зсз33344 0.0 10191479
14:00+10з23260 0.0 10161986
17:00+13ю24221 0.0 10142289
20:00+11вюв33310 0.0 101532
15 мая, сб
сб1523:00+7ююв22360 0.0 101718
02:00+5ююз22390 0.0 101821
05:00+3ююз23420 0.0 101723
08:00+8юз243317 0.0 1016340
11:00+14зсз34265 0.0 10151000
14:00+17св33225 0.0 10142211
17:00+16в753311 0.0 10141151
20:00+12в464585 0.0 1015185
16 мая, вс
вс1623:00+9ю11485 0.0 101710
02:00+8зюз11526 0.0 101710
05:00+6з11585 0.0 101810
08:00+10юз114819 0.0 1017300
11:00+17юз34335 0.0 10131161
14:00+21зсз35245 0.0 10101610
17:00+22св13209 0.0 10072102
20:00+16св6104742 0.0 1010525
17 мая, пн
пн1723:00+11в226727 0.0 101137
02:00+9ююз22735 0.0 100914
05:00+8ююз22759 0.0 100619
08:00+13зюз255385 0.0 1004375
11:00+19с453695 0.0 10031117
14:00+21св643678 0.0 10022179
17:00+17св884499 0.0 10031357
20:00+10св2785100 7.6 1008476
18 мая, вт
вт1823:00+9вюв2383100 5.9 1011364
02:00+8вюв2274100 6.3 1013460
05:00+7ююв2276100 0.1 1013260
08:00+9ююв227149 0.1 1013693
11:00+11ю3462100 0.1 10111147
14:00+13ююз245464 0.1 10081245
17:00+16ююз2448100 0.0 10041459
20:00+14ююв226090 0.0 100212